TimeEST,TemperatureF,Dew PointF,Humidity,Sea Level PressureIn,VisibilityMPH,Wind Direction,Wind SpeedMPH,Gust SpeedMPH,PrecipitationIn,Events,Conditions,WindDirDegrees,DateUTC
12:53 AM,21.9,16.0,78,30.12,2.0,NE,13.8,-,0.00,Snow,Light Snow,40,2014-02-05 05:53:00
12:56 AM,21.2,15.8,80,30.09,1.8,NE,13.8,-,0.00,Snow,Light Snow,50,2014-02-05 05:56:00
1:53 AM,21.9,16.0,78,30.08,1.0,NE,13.8,-,0.00,Snow,Light Snow,50,2014-02-05 06:53:00
2:40 AM,21.2,15.8,80,30.03,2.0,NNE,12.7,-,0.00,Snow,Light Snow,30,2014-02-05 07:40:00
2:53 AM,21.9,16.0,78,30.06,2.0,NE,15.0,-,0.00,Snow,Light Snow,40,2014-02-05 07:53:00
3:03 AM,21.2,15.8,80,30.04,1.8,NE,13.8,-,0.00,Snow,Light Snow,40,2014-02-05 08:03:00
3:15 AM,21.2,15.8,80,30.02,1.8,NNE,16.1,-,0.00,Snow,Light Snow,30,2014-02-05 08:15:00
3:37 AM,21.2,15.8,80,30.00,1.5,NNE,17.3,-,0.00,Snow,Light Snow,30,2014-02-05 08:37:00
3:53 AM,21.9,16.0,78,30.00,2.5,NNE,18.4,-,0.00,Snow,Light Snow,30,2014-02-05 08:53:00
4:10 AM,21.2,15.8,80,29.96,3.0,NE,19.6,26.5,0.00,,Overcast,40,2014-02-05 09:10:00
4:29 AM,21.2,15.8,80,29.94,3.0,NE,20.7,-,0.00,Rain,Light Freezing Rain,40,2014-02-05 09:29:00
4:53 AM,21.9,16.0,78,29.95,2.5,NNE,23.0,28.8,0.00,Rain,Light Freezing Rain,30,2014-02-05 09:53:00
5:01 AM,21.2,15.8,80,29.90,3.0,NNE,20.7,-,0.00,Rain,Light Freezing Rain,30,2014-02-05 10:01:00
5:05 AM,21.2,15.8,80,29.89,2.5,NNE,19.6,-,0.00,Snow,Light Snow,30,2014-02-05 10:05:00
5:14 AM,21.2,15.8,80,29.89,2.0,NNE,23.0,29.9,0.00,Snow,Light Snow,30,2014-02-05 10:14:00
5:21 AM,21.2,15.8,80,29.88,1.8,NNE,21.9,29.9,0.00,Snow,Light Snow,30,2014-02-05 10:21:00
5:53 AM,21.9,17.1,82,29.89,1.0,NNE,18.4,27.6,0.00,Snow,Light Snow,20,2014-02-05 10:53:00
6:11 AM,23.0,17.6,80,29.89,1.2,NNE,18.4,24.2,0.00,Snow,Light Snow,20,2014-02-05 11:11:00
6:53 AM,23.0,17.1,78,29.89,0.8,North,17.3,-,0.00,Snow,Light Snow,10,2014-02-05 11:53:00
7:03 AM,23.0,17.6,80,29.87,0.8,North,17.3,25.3,0.00,Snow,Light Snow,10,2014-02-05 12:03:00
7:34 AM,23.0,17.6,80,29.87,0.5,NNE,17.3,-,0.00,,Haze,20,2014-02-05 12:34:00
7:53 AM,23.0,17.1,78,29.91,0.5,North,16.1,-,0.00,,Haze,10,2014-02-05 12:53:00
8:44 AM,24.8,17.6,74,29.86,0.2,North,19.6,26.5,N/A,,Haze,10,2014-02-05 13:44:00
8:53 AM,24.1,18.0,77,29.89,0.2,NNE,18.4,26.5,N/A,,Haze,20,2014-02-05 13:53:00
9:36 AM,24.8,19.4,80,29.91,0.5,North,12.7,-,N/A,,Haze,360,2014-02-05 14:36:00
9:44 AM,24.8,19.4,80,29.91,0.5,North,15.0,-,N/A,,Haze,360,2014-02-05 14:44:00
9:53 AM,25.0,19.0,78,29.94,0.5,North,13.8,-,N/A,,Haze,360,2014-02-05 14:53:00
10:37 AM,24.8,19.4,80,29.94,0.5,North,16.1,-,N/A,,Haze,360,2014-02-05 15:37:00
10:53 AM,25.0,19.0,78,29.97,0.5,North,17.3,-,N/A,,Haze,360,2014-02-05 15:53:00
11:29 AM,26.6,19.4,74,29.96,0.5,North,17.3,25.3,0.00,Snow,Snow,360,2014-02-05 16:29:00
11:48 AM,26.6,19.4,74,29.96,0.8,North,19.6,26.5,0.00,Snow,Light Snow,10,2014-02-05 16:48:00
11:53 AM,26.1,19.0,75,29.99,1.0,North,19.6,27.6,0.00,Snow,Light Snow,10,2014-02-05 16:53:00
12:50 PM,26.6,19.4,74,30.00,2.5,North,15.0,24.2,0.00,Snow,Light Snow,10,2014-02-05 17:50:00
1:04 PM,28.4,17.6,64,30.01,3.0,North,15.0,-,0.00,Snow,Light Snow,10,2014-02-05 18:04:00
1:38 PM,28.4,19.4,69,30.01,1.8,NNW,11.5,-,0.00,Snow,Light Snow,340,2014-02-05 18:38:00
1:50 PM,28.4,17.6,64,30.02,3.0,North,16.1,25.3,0.00,Snow,Light Snow,350,2014-02-05 18:50:00
1:53 PM,28.0,18.0,66,30.04,4.0,North,20.7,27.6,0.00,Snow,Light Snow,360,2014-02-05 18:53:00
2:12 PM,28.4,17.6,64,30.04,4.0,NNW,18.4,-,0.00,Snow,Light Snow,340,2014-02-05 19:12:00
2:27 PM,26.6,17.6,69,30.05,2.0,NNW,20.7,-,0.00,Snow,Light Snow,340,2014-02-05 19:27:00
2:44 PM,26.6,17.6,69,30.07,4.0,North,17.3,-,0.00,Snow,Light Snow,350,2014-02-05 19:44:00
2:53 PM,27.0,17.1,66,30.10,4.0,NNW,18.4,-,0.00,Snow,Light Snow,340,2014-02-05 19:53:00
3:20 PM,26.6,15.8,64,30.09,6.0,NNW,19.6,-,0.00,Snow,Light Snow,340,2014-02-05 20:20:00
3:32 PM,26.6,15.8,64,30.09,5.0,North,19.6,-,0.00,Snow,Light Snow,350,2014-02-05 20:32:00
3:53 PM,25.0,12.9,60,30.13,10.0,North,19.6,24.2,0.00,Rain,Light Freezing Rain,350,2014-02-05 20:53:00
4:14 PM,24.8,15.8,69,30.12,7.0,NNW,18.4,-,0.00,Snow,Light Snow,340,2014-02-05 21:14:00
4:31 PM,24.8,12.2,59,30.13,10.0,NNW,18.4,-,0.00,Rain,Light Freezing Rain,340,2014-02-05 21:31:00
4:53 PM,23.0,12.0,63,30.18,10.0,NNW,15.0,-,0.00,,Mostly Cloudy,340,2014-02-05 21:53:00
5:11 PM,21.2,10.4,63,30.17,10.0,NNW,17.3,-,N/A,,Scattered Clouds,340,2014-02-05 22:11:00
5:53 PM,19.9,8.1,60,30.25,10.0,NNW,9.2,-,N/A,,Clear,340,2014-02-05 22:53:00
6:38 PM,19.4,6.8,58,30.25,10.0,NNW,12.7,-,N/A,,Mostly Cloudy,340,2014-02-05 23:38:00
6:53 PM,19.0,6.1,57,30.30,10.0,NNW,10.4,-,N/A,,Overcast,330,2014-02-05 23:53:00
7:13 PM,17.6,5.0,58,30.27,10.0,NNW,5.8,-,N/A,,Scattered Clouds,330,2014-02-06 00:13:00
7:53 PM,16.0,5.0,62,30.32,10.0,NW,3.5,-,N/A,,Clear,320,2014-02-06 00:53:00
8:53 PM,12.9,5.0,71,30.34,10.0,NW,3.5,-,N/A,,Overcast,320,2014-02-06 01:53:00
9:53 PM,12.0,3.9,70,30.36,10.0,Calm,Calm,-,N/A,,Overcast,0,2014-02-06 02:53:00
10:53 PM,10.9,5.0,77,30.36,10.0,Calm,Calm,-,N/A,,Overcast,0,2014-02-06 03:53:00
11:53 PM,10.0,3.0,73,30.37,10.0,Calm,Calm,-,N/A,,Partly Cloudy,0,2014-02-06 04:53:00